Weather History for Des Moines, IA

Change the Weather History Date:

Monday, November 8, 2010

  Actual Average Record
Temperature  
Mean Temperature 60 °F 43 °F  
Max Temperature 70 °F 52 °F 80 °F (1999)
Min Temperature 49 °F 34 °F -4 °F (1991)
Degree Days  
Heating Degree Days 5 22  
Month to date heating degree days 135 160  
Since 1 July heating degree days 431 644  
Cooling Degree Days 0 0  
Month to date cooling degree days 0 0  
Year to date cooling degree days 1379 1066  
Growing Degree Days 10 (Base 50)    
Moisture  
Dew Point 37 °F    
Average Humidity 48    
Maximum Humidity 63    
Minimum Humidity 33    
Precipitation  
Precipitation 0.00 in 0.08 in 1.86 in (1879)
Month to date precipitation 0.00 0.67  
Year to date precipitation 48.71 33.08  
Snow  
Snow 0.00 in 0.10 in 5.70 in (1932)
Month to date snowfall 0.0 0.3  
Since 1 July snowfall T 0.7  
Since 1 September snowfall T 0.7  
Snow Depth 0.00 in    
Sea Level Pressure  
Sea Level Pressure 29.80 in    
Wind  
Wind Speed 11 mph (South)    
Max Wind Speed 20 mph    
Max Gust Speed 25 mph    
Visibility 10 miles    
Events      
T = Trace of Precipitation, MM = Missing Value Source: NWS Daily Summary

Daily Weather History Graph

Daily Weather History Graph

Search for Another Location

Airport:

Trip Planner

Search our weather history database for the weather conditions in past years. The results will help you decide how hot, cold, wet, or windy it might be!

Date:

Astronomy

Nov. 08, 2010 Rise Set
Actual Time 6:54 AM CST 5:01 PM CST
Civil Twilight 6:25 AM CST 5:30 PM CST
Nautical Twilight 5:52 AM CST 6:03 PM CST
Astronomical Twilight 5:20 AM CST 6:36 PM CST
Moon 9:45 AM CST (11/8) 6:56 PM CST (11/8)
Length of Visible Light 11h 05m
Length of Day
10h 06m
Waxing Crescent, 8% of the Moon is Illuminated
Nov 8
Waxing Crescent
Nov 13
First Quarter
Nov 21
Full
Nov 28
Last Quarter
Dec 5
New

Hourly Weather History & Observations

Time (CST) Temp. Dew Point Humidity Pressure Visibility Wind Dir Wind Speed Gust Speed Precip Events Conditions
12:54 AM 55.9 °F 33.1 °F 42% 29.89 in 10.0 mi South 13.8 mph 21.9 mph N/A   Clear
1:54 AM 55.0 °F 33.1 °F 43% 29.87 in 10.0 mi South 15.0 mph - N/A   Clear
2:54 AM 53.1 °F 33.1 °F 47% 29.85 in 10.0 mi South 12.7 mph - N/A   Clear
3:54 AM 53.1 °F 33.1 °F 47% 29.84 in 10.0 mi South 9.2 mph - N/A   Clear
4:54 AM 52.0 °F 33.1 °F 49% 29.83 in 10.0 mi South 10.4 mph - N/A   Clear
5:54 AM 52.0 °F 33.1 °F 49% 29.82 in 10.0 mi South 11.5 mph 18.4 mph N/A   Clear
6:54 AM 50.0 °F 34.0 °F 54% 29.82 in 10.0 mi South 11.5 mph - N/A   Clear
7:54 AM 51.1 °F 35.1 °F 54% 29.81 in 10.0 mi South 15.0 mph - N/A   Clear
8:54 AM 55.9 °F 35.1 °F 45% 29.82 in 10.0 mi SSW 17.3 mph 25.3 mph N/A   Clear
9:54 AM 57.9 °F 37.0 °F 46% 29.81 in 10.0 mi SSW 17.3 mph - N/A   Clear
10:54 AM 63.0 °F 37.9 °F 40% 29.79 in 10.0 mi SW 13.8 mph 21.9 mph N/A   Clear
11:54 AM 64.9 °F 37.9 °F 37% 29.78 in 10.0 mi South 11.5 mph - N/A   Clear
12:54 PM 68.0 °F 39.0 °F 35% 29.77 in 10.0 mi South 10.4 mph - N/A   Clear
1:54 PM 69.8 °F 39.2 °F 33% 29.77 in 10.0 mi SSW 12.7 mph - N/A   Partly Cloudy
2:54 PM 70.0 °F 39.9 °F 33% 29.75 in 10.0 mi South 13.8 mph - N/A   Partly Cloudy
3:54 PM 68.0 °F 39.9 °F 36% 29.75 in 10.0 mi SSW 13.8 mph - N/A   Partly Cloudy
4:54 PM 64.0 °F 41.0 °F 43% 29.76 in 10.0 mi South 8.1 mph - N/A   Partly Cloudy
5:54 PM 59.0 °F 39.9 °F 49% 29.78 in 10.0 mi South 6.9 mph - N/A   Clear
6:54 PM 57.9 °F 39.9 °F 51% 29.79 in 10.0 mi SSE 6.9 mph - N/A   Clear
7:54 PM 55.0 °F 39.9 °F 57% 29.79 in 10.0 mi SSE 6.9 mph - N/A   Clear
8:54 PM 55.0 °F 39.9 °F 57% 29.79 in 10.0 mi SSE 6.9 mph - N/A   Clear
9:54 PM 52.0 °F 39.9 °F 63% 29.79 in 10.0 mi SSE 9.2 mph - N/A   Clear
10:54 PM 52.0 °F 39.9 °F 63% 29.78 in 10.0 mi SSE 6.9 mph - N/A   Clear
11:54 PM 50.0 °F 39.9 °F 68% 29.78 in 10.0 mi SSE 9.2 mph - N/A   Clear